TimeEDT,TemperatureF,Dew PointF,Humidity,Sea Level PressureIn,VisibilityMPH,Wind Direction,Wind SpeedMPH,Gust SpeedMPH,PrecipitationIn,Events,Conditions,WindDirDegrees,DateUTC
12:15 AM,46.4,41.0,81,30.02,10.0,West,8.1,-,N/A,,Mostly Cloudy,280,2013-05-25 04:15:00
12:35 AM,46.4,41.0,81,30.02,10.0,WNW,5.8,-,N/A,,Mostly Cloudy,300,2013-05-25 04:35:00
12:55 AM,46.4,41.0,81,30.01,10.0,WNW,6.9,-,N/A,,Scattered Clouds,290,2013-05-25 04:55:00
1:15 AM,46.4,41.0,81,30.01,10.0,WNW,5.8,-,N/A,,Scattered Clouds,290,2013-05-25 05:15:00
1:35 AM,46.4,41.0,81,30.00,10.0,WNW,5.8,-,N/A,,Mostly Cloudy,300,2013-05-25 05:35:00
1:55 AM,46.4,41.0,81,30.00,10.0,WNW,5.8,-,N/A,,Mostly Cloudy,290,2013-05-25 05:55:00
2:15 AM,46.4,41.0,81,29.99,10.0,WNW,5.8,-,N/A,,Mostly Cloudy,300,2013-05-25 06:15:00
2:35 AM,46.4,41.0,81,29.98,10.0,WNW,4.6,-,N/A,,Mostly Cloudy,290,2013-05-25 06:35:00
2:55 AM,46.4,41.0,81,29.98,10.0,WNW,6.9,-,N/A,,Overcast,290,2013-05-25 06:55:00
3:15 AM,46.4,41.0,81,29.98,10.0,WNW,8.1,-,N/A,,Overcast,290,2013-05-25 07:15:00
3:35 AM,46.4,41.0,81,29.98,10.0,NW,5.8,-,N/A,,Mostly Cloudy,310,2013-05-25 07:35:00
3:55 AM,46.4,41.0,81,29.98,10.0,WNW,5.8,-,N/A,,Mostly Cloudy,290,2013-05-25 07:55:00
4:15 AM,46.4,41.0,81,29.98,10.0,West,6.9,-,N/A,,Mostly Cloudy,280,2013-05-25 08:15:00
4:35 AM,46.4,41.0,81,29.99,10.0,WNW,8.1,-,N/A,,Mostly Cloudy,290,2013-05-25 08:35:00
4:55 AM,46.4,41.0,81,29.98,10.0,WNW,9.2,-,N/A,,Overcast,290,2013-05-25 08:55:00
5:15 AM,46.4,41.0,81,29.98,10.0,WNW,5.8,-,N/A,,Overcast,290,2013-05-25 09:15:00
5:35 AM,46.4,41.0,81,29.99,10.0,WNW,6.9,-,N/A,,Overcast,290,2013-05-25 09:35:00
5:55 AM,46.4,41.0,81,29.99,10.0,West,8.1,-,N/A,,Mostly Cloudy,280,2013-05-25 09:55:00
6:15 AM,46.4,39.2,76,29.99,10.0,WNW,8.1,-,N/A,,Scattered Clouds,290,2013-05-25 10:15:00
6:35 AM,46.4,37.4,71,29.99,10.0,West,11.5,19.6,N/A,,Clear,280,2013-05-25 10:35:00
6:55 AM,46.4,37.4,71,29.99,10.0,WNW,6.9,-,N/A,,Clear,300,2013-05-25 10:55:00
7:15 AM,48.2,37.4,66,30.00,10.0,WNW,11.5,18.4,N/A,,Clear,300,2013-05-25 11:15:00
7:35 AM,50.0,37.4,62,30.00,10.0,WNW,10.4,19.6,N/A,,Clear,300,2013-05-25 11:35:00
7:55 AM,50.0,37.4,62,30.00,10.0,WNW,13.8,19.6,N/A,,Clear,300,2013-05-25 11:55:00
8:15 AM,51.8,37.4,58,30.01,10.0,NW,10.4,21.9,N/A,,Clear,310,2013-05-25 12:15:00
8:35 AM,51.8,37.4,58,30.01,10.0,NW,16.1,28.8,N/A,,Clear,310,2013-05-25 12:35:00
8:55 AM,53.6,37.4,54,30.01,10.0,WNW,11.5,24.2,N/A,,Clear,300,2013-05-25 12:55:00
9:15 AM,53.6,37.4,54,30.01,10.0,WNW,11.5,25.3,N/A,,Clear,300,2013-05-25 13:15:00
9:35 AM,53.6,37.4,54,30.01,10.0,WNW,19.6,25.3,N/A,,Clear,300,2013-05-25 13:35:00
9:55 AM,55.4,37.4,51,30.01,10.0,NW,6.9,25.3,N/A,,Clear,320,2013-05-25 13:55:00
10:15 AM,55.4,37.4,51,30.01,10.0,WNW,16.1,23.0,N/A,,Scattered Clouds,300,2013-05-25 14:15:00
10:35 AM,55.4,35.6,47,30.01,10.0,NW,12.7,27.6,N/A,,Scattered Clouds,310,2013-05-25 14:35:00
10:55 AM,55.4,37.4,51,30.02,10.0,NW,12.7,23.0,N/A,,Scattered Clouds,320,2013-05-25 14:55:00
11:15 AM,55.4,35.6,47,30.03,10.0,NW,10.4,18.4,N/A,,Scattered Clouds,310,2013-05-25 15:15:00
11:35 AM,55.4,35.6,47,30.02,10.0,NW,12.7,23.0,N/A,,Mostly Cloudy,310,2013-05-25 15:35:00
11:55 AM,55.4,35.6,47,30.02,10.0,NW,12.7,23.0,N/A,,Mostly Cloudy,320,2013-05-25 15:55:00
12:15 PM,55.4,37.4,51,30.02,10.0,West,11.5,21.9,N/A,,Mostly Cloudy,280,2013-05-25 16:15:00
12:35 PM,57.2,35.6,44,30.01,10.0,NW,12.7,19.6,N/A,,Mostly Cloudy,310,2013-05-25 16:35:00
12:55 PM,59.0,35.6,42,30.01,10.0,NNW,10.4,21.9,N/A,,Scattered Clouds,330,2013-05-25 16:55:00
1:15 PM,59.0,35.6,42,30.01,10.0,WNW,11.5,25.3,N/A,,Scattered Clouds,300,2013-05-25 17:15:00
1:35 PM,59.0,37.4,45,30.00,10.0,NW,8.1,21.9,N/A,,Scattered Clouds,310,2013-05-25 17:35:00
1:55 PM,59.0,35.6,42,30.00,10.0,WNW,13.8,26.5,N/A,,Scattered Clouds,300,2013-05-25 17:55:00
2:15 PM,59.0,35.6,42,30.00,10.0,WNW,13.8,21.9,N/A,,Scattered Clouds,300,2013-05-25 18:15:00
2:35 PM,59.0,35.6,42,30.01,10.0,NW,15.0,23.0,N/A,,Scattered Clouds,310,2013-05-25 18:35:00
2:55 PM,59.0,33.8,39,30.00,10.0,NW,10.4,23.0,N/A,,Scattered Clouds,320,2013-05-25 18:55:00
3:15 PM,59.0,33.8,39,29.99,10.0,WNW,10.4,21.9,N/A,,Scattered Clouds,300,2013-05-25 19:15:00
3:35 PM,60.8,33.8,36,30.00,10.0,NW,12.7,19.6,N/A,,Scattered Clouds,310,2013-05-25 19:35:00
3:55 PM,59.0,33.8,39,30.00,10.0,NW,12.7,23.0,N/A,,Scattered Clouds,310,2013-05-25 19:55:00
4:15 PM,60.8,35.6,39,29.99,10.0,WNW,13.8,28.8,N/A,,Scattered Clouds,290,2013-05-25 20:15:00
4:35 PM,60.8,33.8,36,29.99,10.0,NW,6.9,23.0,N/A,,Scattered Clouds,320,2013-05-25 20:35:00
4:55 PM,60.8,32.0,34,29.99,10.0,NW,18.4,25.3,N/A,,Scattered Clouds,310,2013-05-25 20:55:00
5:15 PM,60.8,33.8,36,29.99,10.0,NW,9.2,20.7,N/A,,Clear,310,2013-05-25 21:15:00
5:35 PM,60.8,32.0,34,30.00,10.0,NW,12.7,24.2,N/A,,Scattered Clouds,310,2013-05-25 21:35:00
5:55 PM,60.8,33.8,36,30.00,10.0,NW,10.4,20.7,N/A,,Scattered Clouds,320,2013-05-25 21:55:00
6:15 PM,60.8,33.8,36,30.01,10.0,NW,8.1,-,N/A,,Scattered Clouds,310,2013-05-25 22:15:00
6:35 PM,60.8,32.0,34,30.01,10.0,NW,11.5,19.6,N/A,,Clear,320,2013-05-25 22:35:00
6:55 PM,60.8,32.0,34,30.01,10.0,NW,6.9,-,N/A,,Clear,320,2013-05-25 22:55:00
7:15 PM,60.8,32.0,34,30.03,10.0,NW,9.2,-,N/A,,Scattered Clouds,320,2013-05-25 23:15:00
7:35 PM,59.0,32.0,36,30.03,10.0,NW,5.8,-,N/A,,Scattered Clouds,320,2013-05-25 23:35:00
7:55 PM,59.0,32.0,36,30.03,10.0,NNW,4.6,-,N/A,,Scattered Clouds,330,2013-05-25 23:55:00
8:15 PM,55.4,33.8,44,30.04,10.0,Calm,Calm,-,N/A,,Clear,0,2013-05-26 00:15:00
8:35 PM,55.4,32.0,41,30.04,10.0,NNW,4.6,-,N/A,,Clear,330,2013-05-26 00:35:00
8:55 PM,55.4,32.0,41,30.05,10.0,NNW,3.5,-,N/A,,Clear,340,2013-05-26 00:55:00
9:15 PM,53.6,32.0,44,30.05,10.0,North,4.6,-,N/A,,Clear,350,2013-05-26 01:15:00
9:35 PM,53.6,33.8,47,30.06,10.0,Calm,Calm,-,N/A,,Clear,0,2013-05-26 01:35:00
9:55 PM,53.6,32.0,44,30.07,10.0,NW,4.6,-,N/A,,Clear,320,2013-05-26 01:55:00
10:15 PM,53.6,33.8,47,30.08,10.0,NW,3.5,-,N/A,,Clear,310,2013-05-26 02:15:00
10:35 PM,51.8,33.8,50,30.08,10.0,Calm,Calm,-,N/A,,Clear,0,2013-05-26 02:35:00
10:55 PM,51.8,33.8,50,30.07,10.0,WNW,5.8,-,N/A,,Clear,290,2013-05-26 02:55:00
11:15 PM,51.8,33.8,50,30.07,10.0,WNW,6.9,-,N/A,,Clear,290,2013-05-26 03:15:00
11:35 PM,51.8,33.8,50,30.07,10.0,WNW,3.5,-,N/A,,Clear,290,2013-05-26 03:35:00
11:55 PM,51.8,33.8,50,30.06,10.0,Calm,Calm,-,N/A,,Clear,0,2013-05-26 03:55:00